Location: Lecco
(45.8566°N, 9.3977°E)
Time: 08:25:04
(UTC+02:00)

Altair - Pass Details

Date: 22 August 2020
Orbit: 1501 x 1682 km, 47.2° (Epoch: 25 September)

Event Time Altitude Azimuth Distance (km) Brightness Sun altitude
Rises 08:18:13 0° 291° (WNW) 4,718 9.5 17.5°
Reaches altitude 10° 08:22:02 10° 279° (W) 3,707 9.0 18.2°
Maximum altitude 08:28:55 24° 230° (SW) 2,731 8.6 19.3°
Drops below altitude 10° 08:35:43 10° 181° (S) 3,643 9.6 20.5°
Sets 08:39:27 0° 168° (SSE) 4,619 10.2 21.2°
